Location: Unspecified
(0.0000°N, 0.0000°E)
Time: 02:25:59
(UTC+00:00)

N. Korean satellite - Pass Details

Date: 14 February 2019
Orbit: 457 x 510 km, 97.2° (Epoch: 14 February)

Event Time Altitude Azimuth Distance (km) Brightness Sun altitude
Rises 05:41:21 0° 15° (NNE) 2,463 10.2 -8.0°
Reaches altitude 10° 05:43:23 10° 18° (NNE) 1,590 9.3 -7.5°
Maximum altitude 05:46:45 65° 100° (E) 504 7.0 -6.7°
Drops below altitude 10° 05:50:09 10° 183° (S) 1,598 9.3 -5.9°
Sets 05:52:12 0° 186° (S) 2,477 10.3 -5.4°
